[[{"header":{"parameterUnit":"m.s-1","parameterCategory":1,"la1":30.2991,"la2":30.254,"lo1":-89.0895,"lo2":-89.0444,"dy":0.0017,"dx":0.0017,"nx":28,"ny":28,"refTime":"2025-03-14T03:00:00:Z","depth":0,"parameterNumber":2,"parameterNumberName":"U-component_of_WINDS"},"data":[0,0,0,0,0,0,0,0,0,0,0,0,0,0,0,0,0,0,0,0,0,0,0,0,0,0,0,0,0,0,0,0,0,0,0,0,0,0,0,0,0,0,0,0,0,0,0,0,0,0,0,0,0,0,0,0,0,0,-4.7189,-4.7191,0,-4.7386,-4.7388,-4.739,-4.7455,-4.7454,-4.7453,-4.7452,-4.7647,-4.7652,-4.7658,0,0,0,0,0,0,0,0,0,0,0,0,0,-4.6864,-4.687,-4.7189,-4.7192,-4.7194,-4.7385,-4.7388,-4.7391,-4.7455,-4.7454,-4.7453,-4.7452,-4.7645,-4.7652,-4.7659,0,0,0,0,0,0,0,0,0,0,0,0,0,-4.7027,-4.6872,-4.7189,-4.7249,-4.7257,-4.7385,-4.7388,-4.7391,-4.7455,-4.7454,-4.7453,-4.7451,-4.7642,-4.7651,-4.766,-4.774,0,0,-4.7687,-4.7691,0,0,0,0,0,0,0,0,-4.7018,-4.7039,-4.7238,-4.7245,-4.7254,-4.7395,-4.7345,-4.7508,-4.7455,-4.7379,-4.7452,-4.7451,-4.7563,-4.7579,-4.7618,-4.7749,-4.7757,-4.7688,-4.7693,-4.7697,-4.77,0,0,0,0,0,0,0,-4.7007,-4.7031,-4.7267,-4.7241,-4.725,-4.7265,-4.7287,-4.7376,-4.7476,-4.7386,-4.7391,-4.7414,-4.7567,-4.7609,-4.7623,-4.776,-4.7688,-4.7696,-4.7701,-4.7705,-4.7967,-4.7969,0,0,0,0,0,0,-4.6986,-4.7021,-4.726,-4.7273,-4.7131,-4.7272,-4.7296,-4.7351,-4.7475,-4.7493,-4.7415,-4.7416,-4.7595,-4.7613,-4.763,-4.7732,-4.7697,-4.7705,-4.7711,-4.7965,-4.7967,-4.7969,0,0,0,0,0,0,-4.6979,-4.7007,-4.7253,-4.7149,-4.7181,-4.7279,-4.7339,-4.7355,-4.7397,-4.7497,-4.7514,-4.744,-4.7594,-4.7618,-4.7713,-4.774,-4.7709,-4.7718,-4.7964,-4.7966,-4.7968,-4.7936,0,0,0,0,0,0,-4.6969,-4.7004,-4.7036,-4.7149,-4.7186,-4.7333,-4.7341,-4.736,-4.7413,-4.7417,-4.7525,-4.7541,-4.7595,-4.7699,-4.7722,-4.7751,-4.7725,-4.7961,-4.7965,-4.7968,-4.7935,-4.7937,-4.7939,0,0,0,0,0,-4.6957,-4.7018,-4.7037,-4.7066,-4.7229,-4.7335,-4.7356,-4.7418,-4.7415,-4.7448,-4.7512,-4.7538,-4.7734,-4.7708,-4.7734,-4.7767,-4.796,-4.7964,-4.7967,-4.7934,-4.7937,-4.7939,0,0,0,0,0,0,-4.6902,-4.7033,-4.7057,-4.7156,-4.7234,-4.7345,-4.7388,-4.7419,-4.7498,-4.7497,-4.757,-4.7594,-4.7683,-4.7735,-4.7704,-4.7851,-4.7848,-4.7857,-4.7814,-4.7817,-4.7819,-4.7803,-4.7732,0,0,0,0,0,-4.6903,-4.6979,-4.7089,-4.7165,-4.7204,-4.7289,-4.7337,-4.7379,-4.7462,-4.7495,-4.7566,-4.7644,-4.7723,-4.7773,-4.7851,-4.7944,-4.7968,-4.7979,-4.7981,-4.7982,-4.7988,-4.8041,-4.8047,-4.7981,-4.7981,-4.7981,0,0,-4.6902,-4.6983,-4.7026,-4.7156,-4.7222,-4.7298,-4.7316,-4.7396,-4.7452,-4.7506,-4.7601,-4.7656,-4.7747,-4.7842,-4.7886,-4.7887,-4.8012,-4.7987,-4.7987,-4.7993,-4.8045,-4.8051,-4.8057,-4.7984,-4.7983,-4.7983,0,0,-4.694,-4.701,-4.7081,-4.7147,-4.7247,-4.7304,-4.7321,-4.7429,-4.7469,-4.7566,-4.7608,-4.7676,-4.781,-4.7874,-4.7924,-4.7989,-4.8015,-4.8012,-4.8021,-4.8071,-4.8076,-4.8081,-4.8103,-4.811,-4.8018,-4.8018,-4.8018,0,-4.6926,-4.7044,-4.7113,-4.7192,-4.7247,-4.7303,-4.7375,-4.7435,-4.7554,-4.759,-4.7591,-4.7762,-4.7828,-4.7937,-4.7953,-4.7993,-4.8013,-4.7999,-4.807,-4.8076,-4.8081,-4.8103,-4.8111,-4.8017,-4.8017,-4.8017,-4.8018,0,-4.7022,-4.7103,-4.7149,-4.7265,-4.7326,-4.7401,-4.748,-4.7533,-4.757,-4.7627,-4.7725,-4.7806,-4.7902,-4.7931,-4.7967,-4.8047,-4.8044,-4.8056,-4.8054,-4.8085,-4.8107,-4.8116,-4.8016,-4.8016,-4.8016,-4.8017,0,0,-4.7028,-4.7184,-4.72,-4.7254,-4.7369,-4.7432,-4.7509,-4.7606,-4.765,-4.7731,-4.7796,-4.791,-4.7923,-4.798,-4.8024,-4.8068,-4.8113,-4.8075,-4.8079,-4.8078,-4.8205,-4.8193,-4.8202,-4.8133,-4.8135,-4.8136,-4.8197,0,-4.708,-4.7222,-4.7287,-4.7399,-4.7475,-4.753,-4.7597,-4.7674,-4.773,-4.78,-4.7861,-4.794,-4.7952,-4.7987,-4.8033,-4.8098,-4.8139,-4.8095,-4.8192,-4.8195,-4.8166,-4.8214,-4.8202,-4.8255,-4.8206,-4.8207,-4.8208,0,-4.7158,-4.7242,-4.7362,-4.747,-4.7504,-4.7563,-4.7658,-4.7725,-4.7814,-4.7851,-4.7916,-4.7959,-4.804,-4.8035,-4.8147,-4.8116,-4.816,-4.8198,-4.8201,-4.8211,-4.8202,-4.8223,-4.8273,-4.828,-4.8222,-4.8221,-4.822,0,-4.7149,-4.7292,-4.7383,-4.7427,-4.7556,-4.7596,-4.7651,-4.7739,-4.7793,-4.7875,-4.791,-4.8,-4.8048,-4.8116,-4.8181,-4.8171,-4.8287,-4.8287,-4.8319,-4.8317,-4.8339,-4.8336,-4.8395,-4.837,-4.837,-4.837,-4.837,0,-4.7199,-4.727,-4.7381,-4.7436,-4.7517,-4.7592,-4.7669,-4.7728,-4.7806,-4.7873,-4.7926,-4.7987,-4.8071,-4.8142,-4.8194,-4.8279,-4.83,-4.8332,-4.8344,-4.8326,-4.8322,-4.8354,-4.8351,-4.8372,-4.8372,-4.8371,-4.8371,0,-4.7202,-4.7279,-4.7381,-4.7495,-4.7526,-4.758,-4.7677,-4.7732,-4.7792,-4.7875,-4.7899,-4.7991,-4.8078,-4.8151,-4.8264,-4.8299,-4.8387,-4.8403,-4.8358,-4.8364,-4.8391,-4.8387,-4.8472,-4.8486,-4.8452,-4.8453,-4.8453,0,-4.7228,-4.7284,-4.7405,-4.7455,-4.751,-4.7589,-4.7645,-4.7721,-4.7777,-4.7884,-4.7925,-4.8017,-4.8094,-4.823,-4.8306,-4.8393,-4.841,-4.8434,-4.8423,-4.8403,-4.8409,-4.8404,-4.841,-4.8433,-4.8433,-4.8433,-4.8433,0,-4.7265,-4.7301,-4.7381,-4.7475,-4.7542,-4.7619,-4.7697,-4.7734,-4.7824,-4.7885,-4.7976,-4.8035,-4.8153,-4.8242,-4.8338,-4.8393,-4.8428,-4.8437,-4.8449,-4.8429,-4.8401,-4.8416,-4.8358,-4.8434,-4.8434,-4.8434,-4.8434,-4.8434,-4.728,-4.7332,-4.7426,-4.7514,-4.7582,-4.7654,-4.7712,-4.7779,-4.7857,-4.796,-4.8,-4.8093,-4.8181,-4.8313,-4.8369,-4.8441,-4.8446,-4.8463,-4.8467,-4.847,-4.8467,-4.8391,-4.8459,-4.8459,-4.8459,-4.8459,-4.846,0,-4.7319,-4.7383,-4.7463,-4.7572,-4.7641,-4.7671,-4.776,-4.7814,-4.7896,-4.7976,-4.8052,-4.8156,-4.8244,-4.8328,-4.8419,-4.8461,-4.8479,-4.8482,-4.8479,-4.8491,-4.8458,-4.8438,-4.8466,-4.8466,-4.8466,-4.8466,-4.8466,-4.8466,-4.7347,-4.7438,-4.7485,-4.761,-4.7673,-4.7766,-4.7814,-4.7881,-4.7945,-4.806,-4.8134,-4.8189,-4.8271,-4.8369,-4.8451,-4.8473,-4.8503,-4.8502,-4.8528,-4.8495,-4.8493,-4.8492,-4.8473,-4.8508,-4.8508,-4.8555,-4.8556,-4.8556]},{"header":{"parameterUnit":"m.s-1","parameterCategory":1,"la1":30.2991,"la2":30.254,"lo1":-89.0895,"lo2":-89.0444,"dy":0.0017,"dx":0.0017,"nx":28,"ny":28,"refTime":"2025-03-14T03:00:00:Z","depth":0,"parameterNumber":3,"parameterNumberName":"V-component_of_WINDS"},"data":[0,0,0,0,0,0,0,0,0,0,0,0,0,0,0,0,0,0,0,0,0,0,0,0,0,0,0,0,0,0,0,0,0,0,0,0,0,0,0,0,0,0,0,0,0,0,0,0,0,0,0,0,0,0,0,0,0,0,6.3391,6.3393,0,6.3505,6.3507,6.3508,6.3492,6.349,6.3488,6.3486,6.3598,6.3603,6.3607,0,0,0,0,0,0,0,0,0,0,0,0,0,6.3156,6.316,6.3391,6.3393,6.3394,6.3505,6.3507,6.3508,6.3492,6.349,6.3487,6.3485,6.3597,6.3602,6.3608,0,0,0,0,0,0,0,0,0,0,0,0,0,6.3263,6.3162,6.3391,6.3399,6.3401,6.3505,6.3507,6.3509,6.3492,6.3489,6.3487,6.3484,6.3595,6.3602,6.3609,6.3709,0,0,6.363,6.3633,0,0,0,0,0,0,0,0,6.3257,6.3271,6.3397,6.3399,6.3401,6.3481,6.3465,6.3576,6.3493,6.3458,6.3486,6.3483,6.3561,6.3571,6.3598,6.3715,6.3719,6.3631,6.3635,6.3638,6.364,0,0,0,0,0,0,0,6.3249,6.3266,6.3436,6.3399,6.3401,6.3396,6.3408,6.3486,6.3524,6.3461,6.346,6.3474,6.3562,6.3592,6.3601,6.3721,6.3631,6.3637,6.3642,6.3644,6.3927,6.393,0,0,0,0,0,0,6.324,6.326,6.3433,6.344,6.3321,6.3403,6.3416,6.3458,6.3523,6.353,6.3476,6.3472,6.3581,6.3593,6.3605,6.3729,6.3638,6.3645,6.3649,6.3924,6.3928,6.3931,0,0,0,0,0,0,6.3235,6.3256,6.3428,6.335,6.3371,6.341,6.3457,6.3462,6.3492,6.3535,6.3541,6.35,6.3579,6.3595,6.3684,6.3733,6.3648,6.3655,6.392,6.3925,6.393,6.3977,0,0,0,0,0,0,6.3228,6.3254,6.3294,6.3351,6.3376,6.3507,6.346,6.3466,6.3505,6.3501,6.3559,6.3565,6.3578,6.3674,6.3691,6.3741,6.366,6.3916,6.3922,6.3928,6.3971,6.3983,6.3993,0,0,0,0,0,6.322,6.3301,6.3296,6.3317,6.3426,6.351,6.3524,6.3538,6.3509,6.3549,6.3576,6.3563,6.3724,6.3683,6.3703,6.3755,6.3913,6.3921,6.3928,6.3966,6.398,6.3992,0,0,0,0,0,0,6.3247,6.3309,6.3304,6.3406,6.3453,6.3507,6.3558,6.3552,6.3608,6.3602,6.3616,6.3629,6.372,6.3746,6.3699,6.3857,6.3814,6.3826,6.3837,6.3851,6.3861,6.3854,6.3666,0,0,0,0,0,6.3265,6.3329,6.3379,6.3464,6.3488,6.3519,6.3556,6.3563,6.3612,6.3631,6.3665,6.3712,6.3773,6.3813,6.3871,6.3974,6.3987,6.402,6.403,6.4039,6.4049,6.4107,6.4123,6.3955,6.3955,6.3955,0,0,6.3302,6.3344,6.3383,6.347,6.3508,6.3573,6.3536,6.3606,6.3654,6.3641,6.3729,6.3755,6.3808,6.3906,6.395,6.393,6.4098,6.4048,6.4055,6.4061,6.4116,6.4132,6.4146,6.396,6.3959,6.3959,0,0,6.3405,6.3442,6.3518,6.3557,6.3615,6.3635,6.3653,6.3708,6.3726,6.3814,6.3806,6.3863,6.3967,6.4006,6.404,6.4157,6.4148,6.4175,6.4232,6.4288,6.4302,6.4313,6.4357,6.4373,6.4185,6.4185,6.4185,0,6.3444,6.3544,6.3558,6.363,6.3669,6.3661,6.3738,6.3774,6.3847,6.3874,6.385,6.3983,6.4017,6.4125,6.4154,6.418,6.4202,6.417,6.4299,6.4311,6.4322,6.4364,6.438,6.4188,6.4188,6.4187,6.4187,0,6.359,6.3659,6.3713,6.3787,6.3831,6.3905,6.393,6.3973,6.3976,6.3998,6.4088,6.4129,6.4197,6.4222,6.4225,6.433,6.4316,6.4296,6.4254,6.4341,6.4381,6.4397,6.4193,6.4192,6.4191,6.419,0,0,6.3714,6.3795,6.3815,6.3849,6.3912,6.3965,6.4038,6.4106,6.4143,6.4193,6.4255,6.4344,6.4326,6.4364,6.437,6.4419,6.4512,6.4393,6.4394,6.4416,6.4633,6.465,6.4669,6.4506,6.4509,6.4511,6.4629,0,6.3824,6.3957,6.3972,6.4089,6.4154,6.4147,6.4211,6.4256,6.4278,6.4335,6.4358,6.4423,6.4392,6.4416,6.4464,6.4491,6.4557,6.4482,6.4564,6.4567,6.4554,6.4689,6.4708,6.4817,6.4645,6.4647,6.4649,0,6.3972,6.4029,6.4153,6.4209,6.4236,6.4294,6.4358,6.4412,6.4463,6.4475,6.4518,6.4519,6.4594,6.4547,6.4651,6.46,6.4634,6.4652,6.4657,6.4667,6.4615,6.4705,6.4852,6.487,6.4673,6.4671,6.467,0,6.4053,6.416,6.4249,6.4278,6.4344,6.4385,6.4414,6.4462,6.4502,6.4557,6.4583,6.4645,6.468,6.4727,6.4744,6.4708,6.4848,6.4802,6.4861,6.4861,6.4893,6.4891,6.505,6.491,6.491,6.491,6.4909,0,6.4177,6.4254,6.4287,6.4342,6.4428,6.4443,6.4528,6.4554,6.4597,6.4657,6.4653,6.4708,6.4726,6.4784,6.4797,6.4883,6.4897,6.491,6.4913,6.4912,6.4911,6.4936,6.493,6.4914,6.4913,6.4912,6.4911,0,6.4284,6.4309,6.4406,6.4461,6.4476,6.4538,6.4584,6.4637,6.4658,6.4733,6.4752,6.4785,6.4853,6.4874,6.4956,6.4965,6.5065,6.506,6.5049,6.505,6.5109,6.5104,6.5292,6.5318,6.5159,6.516,6.5161,0,6.4363,6.4422,6.4484,6.4525,6.4556,6.4621,6.4662,6.4678,6.4722,6.4784,6.4829,6.4897,6.4953,6.5063,6.5094,6.5156,6.5154,6.5215,6.5164,6.5161,6.5158,6.5156,6.5162,6.5226,6.5228,6.5229,6.523,0,6.4501,6.451,6.4571,6.4637,6.4687,6.4739,6.4789,6.4821,6.4845,6.4893,6.4965,6.5008,6.5092,6.5161,6.5224,6.5253,6.5246,6.5246,6.5263,6.5265,6.5257,6.5265,6.5079,6.5242,6.5241,6.524,6.524,6.5239,6.4598,6.4651,6.4704,6.4772,6.4811,6.4858,6.4911,6.4939,6.5,6.5071,6.5076,6.5154,6.5202,6.5288,6.5319,6.5379,6.5362,6.5386,6.5393,6.54,6.5406,6.5245,6.5391,6.539,6.539,6.539,6.5389,0,6.4739,6.4772,6.4834,6.4905,6.4959,6.4948,6.5002,6.5048,6.5117,6.5163,6.5219,6.5301,6.5367,6.5402,6.5468,6.5509,6.5508,6.5526,6.5525,6.5532,6.5417,6.5396,6.5526,6.5526,6.5526,6.5526,6.5526,6.5526,6.4818,6.4909,6.4924,6.5034,6.5066,6.5144,6.5176,6.5219,6.5257,6.5349,6.5405,6.5428,6.547,6.5539,6.5599,6.5607,6.5633,6.5654,6.5661,6.5553,6.5539,6.5526,6.5507,6.5658,6.5659,6.5771,6.5772,6.5773]}]]